This demonstration page uses our WeatherBlox Daily Observations layout. Learn more.

Left ArrowRight Arrow

Hourly Observations for May 25, 2017

Temp ( °F °C ) Dew Point ( °F °C ) Humidity (%) Winds ( mph kmh ) Pressure ( in mb ) Visibility ( mi km ) Precip ( " mm )
12:53 am 00:53 Cloudy 61 16.1 55 12.8 81 81 W 7 11 29.58 1002 10 16 0.00 0.00
1:53 am 01:53 Cloudy 60 15.6 54 12.2 80 80 W 10 17 29.60 1003 10 16 0.00 0.03
2:53 am 02:53 Cloudy 59 15 55 12.8 87 87 VRB 6 9 29.60 1002 10 16 0.00 0.03
3:11 am 03:11 Cloudy with Light Rain 59 15 56 13.3 90 90 W 5 7 29.62 1003 10 16 0.00 0.03
3:53 am 03:53 Cloudy 58 14.4 56 13.3 93 93 W 9 15 29.61 1003 10 16 0.01 0.25
4:08 am 04:08 Cloudy with Light Rain 58 14.4 56 13.3 93 93 WSW 6 9 29.62 1003 10 16 0.00 0.03
4:21 am 04:21 Cloudy with Light Rain 58 14.4 56 13.3 93 93 W 8 13 29.62 1003 7 11 0.02 0.51
4:53 am 04:53 Cloudy 57 13.9 56 13.3 96 96 SW 6 9 29.62 1003 10 16 0.02 0.51
5:53 am 05:53 Cloudy with Light Rain 57 13.9 56 13.3 96 96 WSW 5 7 29.63 1003 10 16 0.01 0.25
6:12 am 06:12 Cloudy 57 13.9 56 13.3 96 96 WSW 5 7 29.65 1004 10 16 0.00 0.03
6:53 am 06:53 Cloudy with Light Rain 57 13.9 55 12.8 93 93 WSW 7 11 29.67 1005 10 16 0.00 0.03
7:53 am 07:53 Cloudy 57 13.9 55 12.8 93 93 VRB 7 11 29.69 1005 10 16 0.00 0.03
8:53 am 08:53 Cloudy 58 14.4 54 12.2 87 87 W 9 15 29.73 1007 10 16 0.00 0.00
9:17 am 09:17 Cloudy 59 15 53 11.7 81 81 W 10 17 29.74 1007 10 16 0.00 0.00
9:38 am 09:38 Partly Cloudy 60 15.6 53 11.7 78 78 W 8 13 29.74 1007 10 16 0.00 0.00
9:53 am 09:53 Sunny 63 17.2 54 12.2 73 73 WNW 10 17 29.72 1007 10 16 0.00 0.00
10:53 am 10:53 Mostly Cloudy 63 17.2 52 11.1 68 68 W 15 24 29.75 1008 10 16 0.00 0.00
11:00 am 11:00 Cloudy 64 17.8 52 11.1 65 65 W 14 22 29.77 1008 10 16 0.00 0.00
11:53 am 11:53 Mostly Cloudy 66 18.9 51 10.6 59 59 W 18 30 29.77 1008 10 16 0.00 0.00
12:53 pm 12:53 Mostly Sunny 69 20.6 50 10 51 51 WNW 17 28 29.78 1008 10 16 0.00 0.00
1:53 pm 13:53 Mostly Cloudy 71 21.7 50 10 47 47 W 14 22 29.78 1009 10 16 0.00 0.00
2:53 pm 14:53 Partly Cloudy 72 22.2 50 10 46 46 W 15 24 29.79 1009 10 16 0.00 0.00
3:53 pm 15:53 Partly Cloudy 72 22.2 50 10 46 46 W 12 19 29.78 1008 10 16 0.00 0.00
4:53 pm 16:53 Mostly Sunny 72 22.2 48 8.9 43 43 W 13 20 29.78 1008 10 16 0.00 0.00
5:53 pm 17:53 Partly Cloudy 73 22.8 51 10.6 46 46 W 13 20 29.79 1009 10 16 0.00 0.00
6:53 pm 18:53 Sunny 72 22.2 50 10 46 46 W 14 22 29.80 1009 10 16 0.00 0.00
7:53 pm 19:53 Mostly Sunny 71 21.7 50 10 47 47 W 8 13 29.82 1010 10 16 0.00 0.00
8:53 pm 20:53 Clear 68 20 52 11.1 57 57 WSW 3 6 29.84 1011 10 16 0.00 0.00
9:53 pm 21:53 Clear 62 16.7 54 12.2 75 75 W 3 6 29.86 1011 10 16 0.00 0.00
10:53 pm 22:53 Clear 64 17.8 53 11.7 68 68 SW 3 6 29.88 1012 10 16 0.00 0.00
11:53 pm 23:53 Clear 61 16.1 54 12.2 78 78 SW 3 6 29.91 1013 10 16 0.00 0.00

Powered by AerisWeather